LEMUR-2-JEROEN

Last updated on Wed Jan 24 2018 00:20:03 GMT+0000 (Greenwich Mean Time)

1 40934U 15052E 18023.05094034 -.00101216 00000-0 -14310-1 0 9995 2 40934 6.0108 102.9692 0008665 125.4218 236.4358 14.77011567125495

Satellite not in orbit